Theta_e
304 306 306 306 307 307 307 308 308 309 310 310 311 311 311 311 309 308 308 308 309 309 310 319 322 322 324 325 328 335 336 340 340 340 338 333 328 328 331 331 335 336 335 335 333
305 306 307 307 307 307 307 307 309 310 310 310 312 312 312 312 310 308 308 311 312 310 310 311 315 319 324 325 328 331 333 336 335 336 334 332 327 325 329 330 332 335 336 334 333
306 307 308 307 308 307 306 307 309 309 310 311 312 312 311 310 309 312 315 314 317 317 314 311 314 318 323 326 328 330 333 332 334 333 334 331 324 325 326 327 332 335 336 333 334
307 308 308 308 308 307 307 307 309 310 311 312 312 312 310 309 307 313 315 314 314 314 317 315 315 316 322 325 329 333 331 333 333 328 329 329 326 322 329 327 330 331 333 334 334
308 308 308 308 308 309 309 310 310 311 312 312 312 312 311 311 310 309 310 315 315 314 318 317 315 316 324 324 327 330 333 335 332 328 327 326 325 323 324 325 326 330 334 335 335
308 308 308 308 308 309 309 310 310 310 311 311 311 311 315 312 309 313 313 309 310 312 318 323 314 317 322 326 325 329 331 334 333 327 327 326 326 325 324 326 327 332 334 335 336
308 308 308 308 308 309 311 311 311 311 311 312 312 312 315 313 314 315 315 314 313 312 316 323 318 317 320 325 329 330 332 328 327 327 327 327 326 324 323 326 332 335 335 335 337
308 308 308 309 313 315 316 316 316 316 315 314 314 314 315 311 315 316 315 315 314 311 315 318 321 317 318 323 325 327 326 330 326 325 324 328 329 324 323 325 331 335 336 337 338
308 308 309 313 315 315 316 317 316 316 315 316 315 316 314 312 314 315 315 315 315 313 314 316 315 317 316 323 325 326 328 328 326 325 326 327 329 324 326 323 325 331 338 340 340
308 309 311 313 314 316 317 315 317 316 317 316 316 316 315 315 317 317 316 316 315 313 314 315 318 320 321 323 328 327 329 326 325 326 327 328 329 327 330 329 322 324 328 331 333
308 309 311 313 314 317 316 315 315 317 316 315 316 316 316 317 317 317 316 314 314 314 314 316 319 322 323 324 325 326 327 328 327 326 327 328 329 327 329 330 330 325 323 322 326
308 309 311 311 313 316 316 316 315 314 314 316 317 317 317 317 317 317 316 313 313 314 315 319 318 319 322 328 327 326 329 328 324 331 327 327 327 328 328 328 328 329 326 324 320
308 309 311 311 314 316 317 314 314 316 315 317 318 318 318 317 317 317 316 315 315 314 317 319 321 322 328 331 330 328 328 326 329 327 323 328 327 326 324 326 323 321 322 320 320
308 308 310 313 315 314 315 311 313 316 315 316 318 317 317 317 318 318 317 317 318 319 319 321 321 324 326 328 330 331 328 327 327 327 331 324 331 319 317 318 315 315 317 318 318
307 309 310 312 312 311 311 309 313 318 319 318 318 318 318 316 317 317 318 318 319 319 320 321 325 324 327 327 327 329 327 328 327 325 325 321 323 320 314 315 314 313 315 316 317
307 308 310 311 311 311 310 312 318 315 318 319 318 318 317 318 319 318 317 317 318 321 320 321 322 323 323 322 325 323 321 321 320 321 324 322 324 322 314 314 313 313 314 315 316
307 307 308 310 310 312 312 316 316 316 315 318 319 318 318 318 318 316 316 318 319 320 321 322 322 321 322 322 321 322 323 323 325 327 326 316 320 322 312 311 312 311 313 314 316
306 307 307 308 310 312 313 314 319 318 316 317 318 318 318 318 319 318 316 320 318 321 322 324 324 320 321 322 322 322 324 321 324 319 319 315 317 315 310 310 312 312 312 313 314
306 307 308 308 311 313 315 312 318 316 315 318 317 319 318 318 319 317 316 317 314 320 322 324 322 319 319 319 321 322 323 321 315 312 315 314 312 311 310 310 310 310 311 311 312
307 307 309 313 313 314 310 314 315 315 316 317 318 318 320 318 318 317 316 314 314 313 315 318 321 316 317 317 317 317 321 319 316 316 316 312 313 313 312 310 309 308 308 310 311
307 308 313 313 314 314 310 311 314 316 314 317 317 318 318 319 318 316 318 316 313 313 311 312 315 315 314 315 319 316 316 313 312 311 313 314 313 308 310 309 308 308 309 310 311
307 304 313 314 312 308 311 314 314 313 313 313 313 316 318 318 317 317 319 318 312 311 314 311 311 313 314 312 310 314 315 314 316 315 308 309 311 307 305 308 310 309 310 310 311
308 310 313 315 309 306 308 311 312 312 313 314 313 313 314 314 315 317 317 312 311 313 312 310 314 312 313 311 309 313 314 311 309 309 309 310 311 305 306 308 311 310 310 310 310
307 306 311 313 311 309 309 310 311 312 311 312 312 311 311 312 313 315 316 313 311 312 313 311 312 311 313 312 309 310 311 311 310 310 309 309 311 309 307 308 307 309 310 310 310
307 305 308 307 308 308 309 309 310 312 311 311 311 310 310 311 310 313 313 312 311 313 310 309 312 309 309 310 309 310 310 310 310 309 312 311 309 309 306 307 308 311 310 309 308
307 309 310 308 309 309 308 308 311 311 311 311 310 309 309 310 310 309 311 312 311 310 309 305 310 309 309 309 311 311 309 309 309 309 309 309 309 308 306 308 308 309 309 309 308
306 308 309 307 306 307 305 309 311 310 311 310 307 307 308 309 310 310 309 309 308 309 307 306 308 309 310 312 312 314 312 310 310 309 308 309 308 306 306 306 307 309 309 308 307
Wind_Speed
10 11 12 13 15 15 16 15 14 12 13 13 14 16 18 20 21 19 20 11 14 13 18 15 13 10 10 8 9 6 3 4 5 6 6 6 6 6 11 13 9 14 7 5 26
11 11 12 13 14 15 16 15 13 13 14 14 15 17 18 23 26 23 11 12 11 15 17 18 13 10 6 7 8 5 5 9 5 5 4 6 9 15 9 11 6 13 10 18 30
11 12 13 14 14 14 14 11 11 12 14 15 17 20 20 24 21 6 2 3 2 4 16 17 12 7 5 7 8 6 6 5 6 5 8 3 7 11 16 4 13 22 18 36 36
11 12 12 13 12 12 12 11 10 11 12 14 17 22 24 21 2 2 6 8 6 8 13 18 14 4 4 6 9 4 7 10 5 4 1 4 5 5 21 9 22 19 20 39 41
12 14 13 12 11 11 11 10 11 11 13 14 17 21 25 15 12 6 15 20 20 16 8 12 15 11 4 5 5 5 4 10 4 0 3 2 2 4 7 6 14 19 27 37 40
12 13 14 13 12 12 13 12 12 13 14 16 17 19 13 9 10 11 11 13 19 15 10 10 7 13 6 7 9 8 9 5 8 5 1 3 1 7 3 3 14 23 29 35 37
13 15 14 13 12 12 14 16 16 15 15 16 17 19 16 17 7 7 13 15 16 16 15 12 16 8 3 4 12 8 6 1 5 7 4 6 4 4 3 4 19 24 28 30 32
8 11 11 9 10 13 17 20 19 19 15 14 17 17 14 9 8 12 15 17 14 14 16 10 9 16 7 8 3 7 5 6 5 7 1 3 4 2 4 8 15 19 24 26 28
7 8 7 9 13 17 20 22 22 18 12 11 15 8 13 11 16 21 19 19 15 11 14 9 7 9 6 2 2 2 5 4 3 5 4 3 4 4 4 9 10 15 21 24 26
6 6 6 10 14 16 17 20 24 9 8 12 4 7 8 16 24 25 15 16 10 10 10 12 9 4 3 4 8 4 5 2 5 6 1 3 4 4 11 9 15 18 24 26 27
4 4 6 9 13 15 22 23 21 5 25 9 14 14 26 19 19 7 13 2 4 3 4 7 3 8 4 4 4 3 6 5 2 5 4 9 7 11 12 10 13 16 14 22 21
4 3 5 7 12 13 16 11 12 9 14 15 14 18 15 13 11 13 5 1 4 3 3 2 7 8 8 7 9 6 6 4 1 2 1 4 9 6 8 8 18 22 18 18 17
2 3 5 8 11 11 11 14 14 8 4 14 11 12 9 5 7 9 2 4 3 3 7 5 5 7 7 6 12 5 6 4 3 2 3 4 6 6 4 11 10 11 12 14 14
2 2 6 8 7 12 9 15 13 8 4 6 5 3 7 6 5 11 4 4 2 1 3 4 3 6 2 4 7 6 5 5 6 4 4 2 4 5 3 5 3 7 11 11 12
6 4 5 8 9 11 13 17 12 1 4 6 5 7 18 4 9 3 2 2 4 2 4 4 3 2 3 4 5 6 5 7 5 4 2 2 1 5 1 5 6 5 6 7 8
8 8 7 8 10 11 15 17 1 5 4 7 5 6 7 2 3 6 2 2 2 1 0 2 2 1 2 3 3 7 7 8 5 3 2 6 6 5 5 6 4 3 4 4 6
10 10 10 10 10 13 13 9 4 4 4 9 4 7 4 4 6 2 4 5 3 3 5 3 3 1 1 5 4 5 6 2 1 2 4 3 3 8 4 4 5 8 4 3 6
11 12 11 9 10 10 11 3 3 3 5 5 4 7 4 6 4 6 1 2 5 3 2 5 3 3 3 4 5 4 6 5 5 5 4 2 6 5 3 4 11 11 7 4 5
12 12 10 4 6 6 4 3 4 3 4 6 9 4 5 3 2 6 4 1 2 3 4 2 6 9 3 3 6 4 4 3 4 3 3 3 4 4 3 4 7 11 11 11 12
13 11 5 4 2 5 3 4 4 5 4 2 2 2 4 5 6 6 6 3 4 0 3 4 0 4 5 1 1 4 6 4 1 3 4 3 3 5 5 6 5 6 12 15 17
12 6 3 3 3 2 3 5 5 9 6 4 3 3 5 4 2 3 3 1 1 4 4 2 5 3 2 2 5 2 2 2 4 3 4 0 5 5 9 9 10 11 17 18 18
6 2 1 2 3 2 1 4 6 6 3 5 3 5 4 3 4 3 3 2 4 3 4 1 2 1 3 2 0 2 1 4 4 3 2 4 5 2 7 9 18 18 20 19 17
5 4 4 4 1 2 6 5 3 3 3 2 4 4 2 3 3 3 4 0 1 4 3 4 3 3 2 3 3 2 4 3 5 3 4 5 5 4 4 9 20 22 22 22 20
2 2 2 7 4 1 3 4 4 5 6 5 4 3 2 3 3 5 3 1 3 0 1 1 0 3 4 4 2 3 3 3 4 3 4 6 4 3 5 9 12 20 24 25 23
2 3 1 3 3 2 2 3 5 5 3 5 4 2 4 4 5 2 2 5 1 1 2 2 2 2 4 4 2 3 4 6 6 4 5 4 7 6 9 12 21 27 25 25 25
3 2 1 4 6 2 2 3 1 5 3 4 2 7 3 3 4 6 3 2 3 3 2 1 1 3 3 2 2 4 6 5 5 3 4 4 5 3 5 10 13 24 27 28 27
6 5 3 3 1 0 4 2 1 5 7 7 6 4 6 5 7 9 8 8 5 3 1 2 2 3 4 4 5 6 5 6 4 3 6 6 8 4 4 8 14 20 27 29 25
Wind_Direction
330 331 333 335 334 334 333 334 332 337 332 326 327 327 329 321 317 308 287 281 266 247 242 239 235 237 231 227 209 191 98 194 212 162 249 176 168 169 181 156 170 191 186 187 173
334 334 339 341 338 340 339 337 344 342 335 332 330 330 330 324 322 307 267 227 244 244 232 238 249 243 222 215 202 171 162 209 216 192 242 270 190 151 155 161 205 193 195 166 173
332 341 343 344 348 345 343 339 340 339 337 335 334 330 335 330 328 10 78 206 183 298 237 232 229 254 231 218 199 191 197 199 254 261 280 257 185 167 139 223 199 195 177 170 176
337 340 343 345 348 346 350 348 340 336 335 333 332 329 332 332 351 143 223 226 244 315 278 245 217 211 232 206 207 177 213 182 220 327 307 169 176 171 166 203 209 203 188 174 181
339 344 348 349 351 349 345 342 337 331 324 327 325 325 328 314 291 295 252 253 262 276 269 243 205 201 209 206 218 211 191 195 167 354 345 186 179 209 204 207 180 191 179 182 185
347 349 350 353 354 353 347 343 336 327 322 321 320 318 324 291 320 339 324 282 269 255 248 221 220 213 282 236 185 205 194 214 202 183 267 115 343 168 170 194 176 185 186 187 188
357 354 355 4 9 6 358 347 337 326 319 318 314 313 299 278 335 351 337 331 305 245 247 237 225 230 337 282 243 207 143 223 222 183 188 120 352 339 323 178 177 185 188 192 196
6 4 9 18 13 4 354 341 329 326 314 310 311 307 278 320 304 317 316 314 313 248 236 242 236 242 229 298 259 149 112 161 200 153 216 161 224 263 146 169 189 190 194 199 201
7 17 26 11 3 357 355 353 339 323 309 303 303 298 277 316 311 319 308 312 292 257 243 236 241 208 243 213 358 239 174 162 171 207 139 130 214 231 122 163 182 193 196 199 206
3 14 22 5 358 358 358 352 359 342 341 318 302 311 295 312 316 309 309 305 264 207 243 222 199 170 182 172 202 175 119 88 154 197 51 146 209 258 192 192 184 189 203 203 207
353 3 12 359 352 355 345 352 12 347 323 260 286 271 293 314 322 332 312 295 150 133 182 192 169 207 171 197 249 175 137 149 228 181 148 199 211 221 218 232 230 212 221 222 211
342 349 0 349 337 346 348 24 29 327 307 316 299 275 308 300 305 344 344 171 165 211 235 6 206 219 192 216 201 204 178 179 44 112 125 166 242 234 210 238 238 238 244 222 217
346 330 330 338 325 333 345 1 358 338 268 296 301 288 320 286 287 313 303 191 220 223 203 176 224 168 183 187 201 192 156 168 161 77 49 100 306 247 224 226 225 233 234 210 213
310 289 311 329 327 326 329 346 344 321 42 279 308 329 315 281 282 314 247 248 45 323 226 191 293 149 135 219 182 210 166 136 132 128 195 165 257 258 265 235 195 153 167 181 198
300 275 290 315 319 319 329 330 325 198 360 308 328 312 324 243 298 259 231 280 27 242 93 240 54 164 135 214 135 232 146 164 145 98 122 226 126 259 170 242 215 184 173 188 203
299 282 280 295 309 317 323 327 3 36 305 332 319 313 346 252 252 287 294 3 26 85 115 271 346 75 116 34 161 143 75 51 54 77 260 214 166 271 200 214 173 184 187 210 223
301 293 284 287 306 316 325 329 24 81 351 302 315 327 326 299 315 337 12 7 17 11 13 17 322 40 123 78 36 103 93 56 67 207 228 150 142 249 300 247 182 162 162 219 216
303 299 291 286 287 312 330 21 33 278 268 292 334 323 355 342 319 338 94 44 345 77 60 27 325 7 328 150 183 180 158 156 180 174 204 86 221 251 304 45 120 130 123 122 155
310 303 303 291 283 310 342 33 214 302 304 313 321 328 324 318 304 356 27 338 171 144 79 91 308 302 221 184 152 182 187 227 65 42 100 211 290 309 72 77 108 124 121 109 122
316 311 313 293 249 309 72 244 232 219 298 286 294 1 314 315 353 18 0 344 335 138 190 203 165 253 284 191 278 166 177 78 101 217 226 278 278 237 209 192 165 145 133 132 134
323 325 315 262 233 285 176 235 276 277 298 208 249 277 253 288 295 302 302 247 276 293 224 174 194 198 208 229 175 129 138 130 133 132 157 348 265 214 205 188 180 177 164 157 152
319 344 275 163 350 11 226 202 311 295 349 278 253 228 240 291 285 291 286 213 354 332 341 124 141 196 187 265 263 133 202 192 121 206 94 136 278 350 253 178 172 176 176 173 170
314 290 236 241 308 315 296 283 255 288 284 273 275 218 201 271 297 235 293 232 323 12 25 353 1 358 27 20 16 159 238 97 81 74 185 132 264 14 114 150 188 179 183 181 181
309 348 226 215 249 215 325 280 297 302 268 273 262 288 318 299 231 294 305 314 332 81 91 201 219 171 194 222 179 257 217 153 129 121 176 217 253 227 188 185 190 192 190 190 192
250 259 195 275 276 226 335 283 297 339 310 311 312 281 316 305 314 319 304 313 161 12 58 76 221 211 247 238 263 259 242 187 198 174 165 239 205 243 204 199 197 199 197 196 200
231 233 241 270 285 278 198 253 305 331 275 308 227 309 320 261 245 291 338 306 286 346 53 45 278 348 305 334 316 276 265 222 223 179 259 170 251 228 155 181 184 203 199 203 203
229 239 267 279 288 118 233 224 341 339 284 260 310 317 299 280 295 291 280 273 261 298 274 42 52 42 278 345 331 298 235 203 203 188 161 190 227 165 179 199 208 207 206 206 203